Location: Sternwarte_Laufen
(47.9344°N, 12.9346°E)
Time: 18:13:34
(UTC+01:00)

ISS - Visible Passes

Search period start: 21 November 2017 00:00
Search period end: 01 December 2017 00:00
Orbit: 402 x 407 km, 51.6° (Epoch: 22 November)

Date Brightness Start Highest point End Pass type
(mag) Time Alt. Az. Time Alt. Az. Time Alt. Az.
27 Nov -0.8 19:07:33 10° SW 19:07:52 12° SW 19:07:52 12° SW visible
28 Nov -2.3 18:15:36 10° SSW 18:17:52 26° SSE 18:17:52 26° SSE visible
29 Nov -1.8 17:24:04 10° S 17:26:17 17° SE 17:27:47 13° ESE visible
29 Nov -1.4 18:59:04 10° WSW 19:00:26 23° WSW 19:00:26 23° WSW visible
30 Nov -3.6 18:06:48 10° SW 18:10:00 54° SSE 18:10:16 52° SE visible
